This is the latest recevied weather packets stored in our database for station/object SQ5JP-4. If no packets are shown the sender has not sent any weather packets the latest 10 day(s).
| Time | Temp. | Humidity | Pressure | Rain* | Wind** | Luminosity | Snow |
|---|---|---|---|---|---|---|---|
| 1787816920 | 18.33° C | 100% | 1006.4 hPa | - | - | - | - |
| 1787816019 | 17.78° C | 100% | 1006.3 hPa | - | - | - | - |
| 1787814222 | 16.67° C | 100% | 1005.6 hPa | - | - | - | - |
| 1787813322 | 16.11° C | 100% | 1005.4 hPa | - | - | - | - |
| 1787812422 | 15° C | 100% | 1005.3 hPa | - | - | - | - |
| 1787811521 | 14.44° C | 100% | 1005 hPa | - | - | - | - |
| 1787810621 | 13.89° C | 100% | 1004.8 hPa | - | - | - | - |
| 1787809721 | 13.33° C | 100% | 1004.8 hPa | - | - | - | - |
| 1787808821 | 12.22° C | 100% | 1004.6 hPa | - | - | - | - |
| 1787807921 | 11.11° C | 100% | 1004.6 hPa | - | - | - | - |
| 1787807021 | 10.56° C | 100% | 1004.7 hPa | - | - | - | - |
| 1787806121 | 10° C | 100% | 1004.7 hPa | - | - | - | - |
| 1787805221 | 9.44° C | 100% | 1004.6 hPa | - | - | - | - |
| 1787804321 | 8.89° C | 100% | 1004.4 hPa | - | - | - | - |
| 1787803420 | 8.33° C | 100% | 1004.5 hPa | - | - | - | - |
| 1787802520 | 8.33° C | 100% | 1004.5 hPa | - | - | - | - |
| 1787801620 | 8.33° C | 100% | 1004.4 hPa | - | - | - | - |
| 1787800720 | 8.33° C | 100% | 1004.4 hPa | - | - | - | - |
| 1787799820 | 8.33° C | 100% | 1004.2 hPa | - | - | - | - |
| 1787798920 | 8.33° C | 100% | 1004.2 hPa | - | - | - | - |
| 1787798019 | 8.89° C | 100% | 1004.1 hPa | - | - | - | - |
| 1787797119 | 8.89° C | 100% | 1004.2 hPa | - | - | - | - |
| 1787796219 | 8.89° C | 100% | 1004.1 hPa | - | - | - | - |
| 1787795319 | 8.33° C | 100% | 1003.9 hPa | - | - | - | - |
| 1787794419 | 8.89° C | 100% | 1003.9 hPa | - | - | - | - |
* Rain since midnight (hover to see other rain measurements)
** Current wind speed in m/s (hover to see current wind gust speed)